COSMOS 2491 DEB, 57570

Orbit data source: Space-Track

COSMOS 2491 DEB, 57570 is space debris in LEO originally from a launch on Wed, 25 Dec 2013 UTC launched from the Plesetsk Missile And Space Complex (PKMTR). Debris objects in space refer to the collection of defunct objects orbiting the Earth. Examples of debris include non-operational satellites, rocket bodies, and fragments generated from explosions, collisions, or faulty payload assembly.

Loading next visibility...
Identifier
57570, 2013-076BH
Orbit
LEO
Country
Flag of CISCIS
Related business
Manufacturer
TsNIIKhM
Mission
Spacecraft
Bus & Motor
Unknown
Mass
Unknown
Launch date (UTC)
2013-12-25 (12 years ago)
Launch vehicle
Unknown
Launch site
Plesetsk Missile And Space Complex (PKMTR)
Object type
Payload
Rocket body
Debris
Shape & HBR
Unknown shape, 0.1 m
Radar Cross Section
Small (<0.1 m²)

Expand to show TLE details & history
Last TLE update: 2 days ago

TLE from 2 days ago
0 COSMOS 2491 DEB
1 57570U 13076BH  25339.54606654  .00002863  00000-0  17274-1 0  9990
2 57570  82.4506 273.3637 0157018 334.2088  25.1227 12.52875056117584
Epoch: 2025-12-05T13:06Z
TLE epoch observation values (Epoch: 2025-12-05T13:06:20.149Z)
Latitude
-0.00005°
Longitude
2.19313°
Altitude
1,344.22 km
Speed
7.237 km/s
True Right ascension
18h 13m 27s
True Declination
0° 00' 00"
Sunlit
Object was in daylight at epoch
Visualization orbit readout
Latitude
Unknown
Longitude
Unknown
Altitude
Unknown
Speed
Unknown
Apparent Right ascension
Unknown
Apparent Declination
Unknown
Sunlit
N/A
Visualization observer readout
Local Sidereal Time
04:42:30
Azimuth
Unknown
Elevation
Unknown
Doppler factor
Unknown
Orbital elements
Apogee altitude
1,572.743 km
Perigee altitude
1,326.917 km
Semi-major axis
7,827.967 km
Eccentricity
0.0157
Inclination
82.4506°
RAAN
273.3637°
Arg. of periapsis
334.2088°
True anomaly
25.90039°
Mean anomaly
25.1227°
Eccentric anomaly
25.51015°
Mean motion
3.13379 °/min
Orbital period
114.88 mins
BSTAR
0.017274
Loading maneuver chart data...
Computing Atmospheric mass density...
Loading historical data...
Loading historical data...
Loading historical data...
Loading historical data...
Loading historical data...
Loading historical data...
Loading historical data...

Documentation

Showing up to 5 results
|